Stündliche Wetter Juan Rodríguez Clara

Heute, 27 Februar, Samstag

Zeit Temperatur Niederschläge Wind Luftdruck Luftfeuchtigkeit
00:00 +23°C° 0 mm 1 m/S 750 mmHg 91%
01:00 +23°C° 0 mm 1 m/S 749 mmHg 93%
02:00 +23°C° 0 mm 1 m/S 749 mmHg 94%
03:00 +23°C° 0 mm 1 m/S 748 mmHg 95%
04:00 +22°C° 0 mm 1 m/S 748 mmHg 96%
05:00 +22°C° 0 mm 1 m/S 748 mmHg 96%
06:00 +20°C° 0 mm 0 m/S 749 mmHg 97%
07:00 +21°C° 0 mm 0 m/S 749 mmHg 93%
08:00 +25°C° 0 mm 1 m/S 749 mmHg 89%
09:00 +26°C° 0 mm 1 m/S 749 mmHg 85%
10:00 +28°C° 0 mm 1 m/S 749 mmHg 78%
11:00 +28°C° 0 mm 0 m/S 749 mmHg 70%
12:00 +30°C° 0 mm 0 m/S 749 mmHg 62%
13:00 +32°C° 0 mm 1 m/S 748 mmHg 59%
14:00 +32°C° 0 mm 1 m/S 747 mmHg 55%
15:00 +33°C° 0 mm 1 m/S 746 mmHg 52%
16:00 +32°C° 0 mm 2 m/S 746 mmHg 58%
17:00 +31°C° 0 mm 2 m/S 747 mmHg 64%
18:00 +29°C° 0 mm 2 m/S 747 mmHg 71%
19:00 +28°C° 0 mm 2 m/S 747 mmHg 77%
20:00 +27°C° 0 mm 2 m/S 748 mmHg 83%
21:00 +25°C° 0 mm 2 m/S 749 mmHg 88%
22:00 +25°C° 0 mm 2 m/S 749 mmHg 89%
23:00 +25°C° 0 mm 1 m/S 749 mmHg 91%

Morgen, 28 Februar, Sonntag

Zeit Temperatur Niederschläge Wind Luftdruck Luftfeuchtigkeit
00:00 +24°C° 0 mm 1 m/S 749 mmHg 92%
01:00 +24°C° 0 mm 1 m/S 749 mmHg 93%
02:00 +23°C° 0 mm 1 m/S 748 mmHg 94%
03:00 +21°C° 0 mm 0 m/S 748 mmHg 95%
04:00 +21°C° 0 mm 0 m/S 748 mmHg 95%
05:00 +23°C° 0 mm 1 m/S 748 mmHg 95%
06:00 +22°C° 0 mm 1 m/S 748 mmHg 95%
07:00 +24°C° 0 mm 1 m/S 748 mmHg 89%
08:00 +25°C° 0 mm 1 m/S 749 mmHg 84%
09:00 +27°C° 0 mm 1 m/S 749 mmHg 78%
10:00 +28°C° 0 mm 1 m/S 749 mmHg 72%
11:00 +30°C° 0 mm 1 m/S 748 mmHg 65%
12:00 +32°C° 0 mm 1 m/S 748 mmHg 58%
13:00 +32°C° 0 mm 2 m/S 747 mmHg 56%
14:00 +34°C° 0 mm 2 m/S 746 mmHg 54%
15:00 +34°C° 0 mm 2 m/S 746 mmHg 51%
16:00 +32°C° 0 mm 2 m/S 746 mmHg 57%
17:00 +31°C° 0 mm 2 m/S 746 mmHg 62%
18:00 +30°C° 0 mm 2 m/S 746 mmHg 67%
19:00 +29°C° 0 mm 2 m/S 747 mmHg 72%
20:00 +27°C° 0 mm 2 m/S 747 mmHg 78%
21:00 +26°C° 0 mm 2 m/S 748 mmHg 83%
22:00 +25°C° 0 mm 2 m/S 748 mmHg 84%
23:00 +25°C° 0 mm 2 m/S 748 mmHg 85%

übermorgen, 1 März, Montag

Zeit Temperatur Niederschläge Wind Luftdruck Luftfeuchtigkeit
00:00 +24°C° 0 mm 2 m/S 748 mmHg 86%
01:00 +24°C° 0 mm 1 m/S 748 mmHg 85%
02:00 +24°C° 0 mm 1 m/S 748 mmHg 84%
03:00 +23°C° 0 mm 1 m/S 747 mmHg 84%
04:00 +23°C° 0 mm 1 m/S 748 mmHg 85%
05:00 +23°C° 0 mm 1 m/S 748 mmHg 86%
06:00 +22°C° 0 mm 1 m/S 748 mmHg 87%
07:00 +22°C° 0 mm 0 m/S 748 mmHg 83%
08:00 +24°C° 0 mm 0 m/S 749 mmHg 78%
09:00 +25°C° 0 mm 0 m/S 749 mmHg 73%
10:00 +29°C° 0 mm 1 m/S 749 mmHg 68%
11:00 +31°C° 0 mm 2 m/S 749 mmHg 64%
12:00 +33°C° 0 mm 3 m/S 749 mmHg 59%
13:00 +34°C° 0 mm 4 m/S 748 mmHg 58%
14:00 +34°C° 0 mm 4 m/S 748 mmHg 58%
15:00 +34°C° 0 mm 5 m/S 747 mmHg 57%
16:00 +32°C° 0 mm 5 m/S 748 mmHg 64%
17:00 +29°C° 0 mm 6 m/S 748 mmHg 70%
18:00 +27°C° 0 mm 6 m/S 749 mmHg 77%
19:00 +26°C° 0 mm 5 m/S 750 mmHg 82%
20:00 +25°C° 0 mm 4 m/S 751 mmHg 86%
21:00 +24°C° 0 mm 3 m/S 752 mmHg 91%
22:00 +23°C° 0 mm 4 m/S 752 mmHg 93%
23:00 +23°C° 0 mm 4 m/S 752 mmHg 94%

2 März, Dienstag

Zeit Temperatur Niederschläge Wind Luftdruck Luftfeuchtigkeit
00:00 +22°C° 0 mm 4 m/S 752 mmHg 96%
01:00 +22°C° 0 mm 4 m/S 752 mmHg 96%
02:00 +22°C° 0 mm 4 m/S 752 mmHg 96%
03:00 +22°C° 0 mm 3 m/S 752 mmHg 96%
04:00 +22°C° 0.1 mm 5 m/S 752 mmHg 94%
05:00 +22°C° 0.1 mm 6 m/S 752 mmHg 92%
06:00 +22°C° 0.1 mm 7 m/S 752 mmHg 90%
07:00 +22°C° 0 mm 7 m/S 753 mmHg 87%
08:00 +22°C° 0 mm 7 m/S 754 mmHg 84%
09:00 +22°C° 0 mm 8 m/S 755 mmHg 81%
10:00 +22°C° 0 mm 8 m/S 754 mmHg 80%
11:00 +22°C° 0 mm 8 m/S 754 mmHg 79%
12:00 +22°C° 0 mm 9 m/S 754 mmHg 79%
13:00 +22°C° 0 mm 8 m/S 753 mmHg 79%
14:00 +22°C° 0 mm 7 m/S 753 mmHg 79%
15:00 +21°C° 0 mm 7 m/S 752 mmHg 80%
16:00 +21°C° 0 mm 6 m/S 753 mmHg 81%
17:00 +21°C° 0 mm 5 m/S 753 mmHg 82%
18:00 +21°C° 0 mm 5 m/S 753 mmHg 83%
19:00 +21°C° 0 mm 5 m/S 753 mmHg 82%
20:00 +21°C° 0 mm 5 m/S 754 mmHg 82%
21:00 +21°C° 0 mm 5 m/S 755 mmHg 81%
22:00 +20°C° 0 mm 4 m/S 754 mmHg 84%
23:00 +20°C° 0 mm 4 m/S 754 mmHg 86%

3 März, Mittwoch

Zeit Temperatur Niederschläge Wind Luftdruck Luftfeuchtigkeit
00:00 +20°C° 0 mm 4 m/S 754 mmHg 89%
01:00 +20°C° 0 mm 4 m/S 754 mmHg 89%
02:00 +20°C° 0 mm 3 m/S 754 mmHg 90%
03:00 +19°C° 0 mm 3 m/S 753 mmHg 90%
04:00 +20°C° 0 mm 3 m/S 753 mmHg 89%
05:00 +20°C° 0 mm 3 m/S 753 mmHg 88%
06:00 +20°C° 0 mm 3 m/S 753 mmHg 88%
07:00 +21°C° 0 mm 3 m/S 753 mmHg 86%
08:00 +21°C° 0 mm 3 m/S 754 mmHg 85%
09:00 +22°C° 0 mm 3 m/S 754 mmHg 84%
10:00 +25°C° 0 mm 3 m/S 754 mmHg 77%
11:00 +26°C° 0 mm 2 m/S 753 mmHg 71%
12:00 +28°C° 0 mm 2 m/S 753 mmHg 64%
13:00 +29°C° 0 mm 2 m/S 752 mmHg 63%
14:00 +29°C° 0 mm 2 m/S 751 mmHg 63%
15:00 +30°C° 0 mm 2 m/S 750 mmHg 62%
16:00 +29°C° 0 mm 2 m/S 750 mmHg 67%
17:00 +28°C° 0 mm 2 m/S 750 mmHg 73%
18:00 +27°C° 0 mm 2 m/S 750 mmHg 79%
19:00 +25°C° 0 mm 2 m/S 751 mmHg 83%
20:00 +24°C° 0 mm 1 m/S 752 mmHg 88%
21:00 +23°C° 0 mm 1 m/S 752 mmHg 92%
22:00 +22°C° 0 mm 1 m/S 752 mmHg 93%
23:00 +21°C° 0 mm 2 m/S 752 mmHg 94%

4 März, Donnerstag

Zeit Temperatur Niederschläge Wind Luftdruck Luftfeuchtigkeit
00:00 +21°C° 0 mm 2 m/S 753 mmHg 95%
01:00 +21°C° 0 mm 2 m/S 752 mmHg 96%
02:00 +20°C° 0 mm 2 m/S 752 mmHg 97%
03:00 +21°C° 0 mm 1 m/S 752 mmHg 98%
04:00 +21°C° 0 mm 1 m/S 752 mmHg 97%
05:00 +21°C° 0 mm 1 m/S 751 mmHg 97%
06:00 +21°C° 0 mm 1 m/S 751 mmHg 97%
07:00 +23°C° 0 mm 1 m/S 752 mmHg 91%
08:00 +24°C° 0 mm 1 m/S 752 mmHg 86%
09:00 +25°C° 0 mm 1 m/S 752 mmHg 81%
10:00 +27°C° 0 mm 1 m/S 752 mmHg 72%
11:00 +29°C° 0 mm 1 m/S 752 mmHg 63%
12:00 +31°C° 0 mm 1 m/S 751 mmHg 54%
13:00 +31°C° 0 mm 2 m/S 751 mmHg 52%
14:00 +32°C° 0 mm 2 m/S 750 mmHg 50%
15:00 +34°C° 0 mm 3 m/S 749 mmHg 47%
16:00 +31°C° 0 mm 2 m/S 749 mmHg 56%
17:00 +29°C° 0 mm 2 m/S 750 mmHg 65%
18:00 +28°C° 0 mm 2 m/S 750 mmHg 74%
19:00 +26°C° 0 mm 2 m/S 750 mmHg 77%
20:00 +25°C° 0 mm 2 m/S 750 mmHg 80%
21:00 +23°C° 0 mm 2 m/S 751 mmHg 84%
22:00 +23°C° 0 mm 2 m/S 751 mmHg 85%
23:00 +23°C° 0 mm 2 m/S 750 mmHg 87%
Mehr zeigen

Wir brauchen deine Erlaubnis

Meteoprog und unser Service Anbieter werden persönliche Daten aufbewahren, so wie Cookies, Geräte Bezeichnung oder ähnliche Technologien von deinem Gerät und Prozess, so wie Persönliche Daten Inhalte und Werbungen, genauso wie social Media und den Verkehr zu analysieren.

  • Aufbewahrung und/oder Zugang zu deiner Geräte Informationen.

    Cookies, Geräte Bezeichnung oder andere Informationen, können aufbewahrt oder Zugang zu deinem Gerät erhalten, für den Grund, der oben angegeben wird.

  • Personalisierte Werbung und Inhalte, Messungen, Einblick in das Publikum und Produkt Entwicklung.

    Werbungen und Inhalte können personalisiert werden, basierend auf ein Profil. Mehr Daten können besser personalisierte Werbungen und Inhalte hinzufügen. Werbung und Inhalte können gezeigt und gemessen werden. Einblicke über das Publikum, welche die Werbung gesehen haben und den Inhalt, können abgeleitet werden. So wie Daten können genutzt werden, um es zu verbessern oder die Benutzer Erfahrung zu verbessern das System und die Software.

Wenn du “Ich stimme zu” klickst, erlaubst du uns, die Cookies zu benutzen die Geräte Bezeichnung, den Web oder ähnliche Technologien zu benutzen. Deine Settings, können in deinem Gerät bei deinem Browser geändert werden.

Für den bestimmten Zweck, berechtigten Interessen beruhen darauf, mehr als auf den Inhalt. Du kannst mehr darüber in unseren Privaten und Cookie Politik lesen.